Wind_Speed
43 44 44 44 44 44 44 44 45 45 45 46 46 46 47 49 51 51 51 51 52 52 52 52 52 52 51 51 50 50 50 50 50 50 51 51 51 51
41 42 42 42 42 43 43 44 44 45 45 45 46 45 46 48 49 51 51 51 52 52 52 53 53 53 53 53 52 52 52 52 52 52 53 53 53 53
40 41 41 41 41 42 43 44 44 44 44 44 45 45 46 48 48 50 50 50 51 52 52 52 52 54 54 53 53 53 54 54 54 54 54 55 55 54
38 39 40 40 41 41 42 43 43 44 44 44 45 45 46 46 47 49 50 50 50 50 50 50 52 54 54 53 53 54 54 55 56 56 57 56 56 56
38 38 39 40 41 41 42 43 43 44 44 45 45 46 47 47 47 48 49 49 50 50 50 51 53 54 54 54 54 54 55 56 56 57 57 57 57 57
38 38 39 40 40 41 42 43 44 45 45 45 45 46 46 46 47 48 48 49 49 50 50 52 53 54 54 55 55 55 56 56 56 57 58 58 58 58
38 38 39 39 40 41 42 42 43 44 44 44 44 45 45 46 47 48 49 48 48 49 50 51 53 53 54 55 56 56 56 56 57 58 58 59 59 59
38 38 39 39 39 40 41 42 42 42 42 43 44 44 44 45 47 48 49 49 49 49 49 50 51 53 54 55 56 56 56 56 58 59 60 60 60 59
38 39 39 38 38 39 40 40 40 41 41 43 44 44 44 45 47 47 48 48 48 49 49 50 52 53 53 54 54 55 56 56 57 58 59 59 58 57
37 37 38 38 39 39 39 39 40 40 41 41 42 43 44 44 45 46 47 47 48 48 50 50 51 51 50 51 52 53 55 55 55 55 56 57 57 56
35 35 35 36 37 38 38 38 38 38 39 40 41 42 42 43 44 46 47 47 47 48 48 48 48 49 49 50 51 51 52 53 54 54 53 53 53 53
35 35 35 36 36 36 37 37 38 38 39 40 40 41 42 43 44 45 46 46 46 46 46 46 46 47 47 48 49 50 51 51 52 52 51 51 50 51
35 35 36 37 37 37 37 38 38 39 39 40 41 42 42 43 43 43 45 45 45 44 44 44 44 45 46 46 47 49 49 49 49 49 49 49 50 50
35 35 35 36 37 37 37 38 38 39 39 40 40 40 41 42 43 44 43 43 43 43 43 43 44 45 45 46 46 46 47 47 47 47 47 48 48 48
34 34 34 35 36 37 38 38 39 39 39 39 39 40 40 41 42 41 40 41 41 41 42 42 43 43 44 45 45 45 45 45 46 46 46 46 46 45
33 33 34 34 35 36 37 37 37 38 38 38 39 39 40 40 39 39 40 40 40 40 40 41 41 42 43 44 44 44 44 44 44 44 44 44 44 43
32 32 32 33 33 34 35 36 36 37 38 38 39 39 39 38 38 38 38 38 39 39 39 39 40 41 41 42 42 43 43 42 42 42 42 42 41 40
32 31 31 32 33 33 34 36 36 37 37 38 38 38 37 37 37 38 38 38 38 39 39 39 39 39 40 41 41 41 41 40 40 40 40 40 39 39
30 30 30 31 32 33 34 34 35 36 36 36 36 35 36 36 36 37 37 38 38 38 38 38 38 39 39 39 39 40 39 38 39 38 38 37 37 37
30 30 30 31 31 32 33 33 34 34 35 35 35 35 36 36 36 36 36 36 36 36 36 37 37 37 37 37 38 38 38 37 37 37 37 37 37 37
29 30 30 30 31 31 32 32 33 33 33 33 34 35 35 35 35 35 35 35 35 35 35 35 35 36 36 37 36 36 36 36 36 35 35 36 36 36
29 29 30 30 30 30 31 31 32 32 32 32 33 34 34 35 35 35 35 35 35 35 35 35 35 35 36 36 36 35 35 35 34 34 35 35 35 34
29 29 29 29 30 30 31 31 31 31 32 32 33 33 34 34 34 34 35 35 34 34 34 35 35 35 35 34 34 34 34 34 34 34 35 34 34 33
Wind_Direction
262 262 261 259 258 258 257 256 255 255 254 254 255 255 255 255 255 256 255 256 257 257 258 259 260 261 262 264 266 268 269 271 273 275 276 277 277 279
263 261 260 259 258 257 256 256 256 256 254 253 255 256 255 256 257 257 257 257 257 257 259 259 260 262 263 265 267 268 270 271 273 274 276 277 278 278
262 260 259 259 258 258 256 256 257 257 256 255 256 256 257 257 258 259 258 257 257 258 259 260 261 262 264 266 268 269 270 271 273 274 275 277 278 278
261 260 259 259 259 258 257 256 257 258 258 258 257 258 258 258 259 260 259 259 259 260 261 262 262 263 264 266 267 269 271 272 273 274 275 277 278 278
261 260 258 259 258 259 259 258 258 259 259 259 258 258 258 258 259 260 261 261 261 261 262 263 264 265 265 267 268 270 271 272 274 275 276 276 277 278
260 260 260 259 259 260 260 260 259 259 260 260 259 259 258 258 260 261 262 262 262 263 263 264 265 266 267 268 270 272 273 273 274 275 276 276 276 277
261 261 260 260 260 261 260 260 260 260 260 260 260 260 260 260 261 262 263 262 263 264 264 265 266 267 268 270 271 272 273 274 275 275 275 276 277 278
262 262 261 262 261 262 261 261 261 260 260 261 260 261 262 263 263 263 264 263 264 265 266 268 269 269 270 271 272 273 274 275 276 276 276 277 277 278
263 262 262 263 262 264 263 262 261 261 261 261 261 263 263 264 265 265 265 265 265 266 268 268 270 270 271 272 272 273 274 276 278 278 278 278 278 278
263 262 262 262 263 264 264 262 262 262 262 262 263 264 264 265 265 266 266 267 267 268 269 270 270 270 271 272 273 274 275 276 278 279 279 279 279 278
263 262 262 262 263 263 263 263 264 264 264 264 265 265 264 265 266 267 268 268 269 270 270 270 269 269 271 273 274 275 276 277 279 280 280 281 281 280
263 262 262 263 264 264 264 265 265 266 266 266 265 265 266 267 268 269 269 270 270 271 270 270 271 271 273 274 274 276 277 278 279 280 280 281 282 282
263 265 265 264 263 264 266 266 267 267 267 267 267 268 269 269 270 271 271 271 271 271 271 270 271 272 274 276 277 277 278 278 279 281 280 281 282 283
264 266 266 265 264 264 266 268 269 269 269 268 269 269 270 270 272 273 272 272 271 271 271 271 272 273 275 277 278 279 280 280 280 281 281 281 282 284
265 266 266 265 264 263 265 266 268 269 269 269 270 270 271 271 272 272 271 272 272 272 272 273 274 275 276 278 280 281 282 282 282 282 282 282 283 283
265 266 266 265 265 265 266 267 268 270 270 270 270 269 271 272 271 270 271 271 272 273 275 275 275 276 278 280 282 283 283 283 282 282 283 284 284 283
265 266 266 266 266 267 266 267 269 269 270 270 270 270 270 270 269 270 270 271 272 274 275 277 278 279 280 282 283 284 284 284 284 284 285 285 285 284
264 266 267 267 268 267 267 268 269 270 270 270 270 269 268 269 269 270 270 271 273 275 276 277 279 280 281 282 283 284 284 284 285 285 286 286 285 285
264 266 267 269 270 270 270 270 270 271 271 270 269 268 268 269 270 270 271 272 274 275 276 278 279 281 282 283 283 283 284 285 285 285 286 286 286 287
265 266 268 269 271 271 271 271 271 272 271 270 269 270 270 271 272 272 273 273 274 276 277 279 280 282 283 284 284 284 284 285 285 285 285 285 287 288
265 266 267 269 271 272 272 273 273 273 272 271 271 272 272 272 272 271 273 274 275 277 278 279 281 283 284 285 285 284 284 285 286 286 285 286 286 287
265 267 269 270 271 273 274 275 275 274 273 273 273 274 273 273 272 272 273 275 276 277 279 280 281 283 285 285 285 285 284 284 285 286 286 286 286 285
267 269 270 271 272 274 276 277 276 275 274 274 274 275 275 274 273 273 275 275 276 277 279 280 281 283 284 284 284 284 283 283 284 286 287 287 287 286
Height
5676 5677 5677 5678 5678 5680 5681 5682 5685 5687 5690 5692 5693 5694 5695 5697 5699 5701 5703 5704 5706 5708 5710 5711 5712 5713 5714 5715 5715 5715 5715 5715 5715 5714 5713 5712 5711 5709
5665 5665 5666 5666 5667 5668 5670 5671 5673 5675 5678 5680 5681 5682 5684 5685 5686 5688 5689 5691 5693 5695 5696 5698 5699 5700 5701 5702 5702 5702 5702 5702 5701 5701 5700 5699 5697 5695
5653 5654 5655 5655 5656 5657 5658 5660 5662 5664 5666 5669 5669 5671 5672 5673 5674 5675 5677 5678 5680 5682 5683 5684 5686 5687 5687 5688 5688 5689 5688 5688 5688 5687 5686 5685 5683 5681
5642 5643 5644 5645 5646 5647 5648 5649 5651 5652 5654 5656 5658 5659 5660 5661 5662 5663 5664 5666 5667 5668 5670 5671 5672 5673 5674 5674 5674 5674 5674 5673 5673 5672 5671 5670 5669 5666
5632 5632 5633 5634 5635 5636 5637 5638 5640 5641 5642 5644 5646 5647 5648 5649 5650 5651 5652 5653 5654 5655 5656 5657 5658 5659 5660 5660 5660 5659 5659 5659 5658 5657 5655 5654 5652 5651
5621 5622 5622 5623 5624 5625 5626 5627 5628 5629 5631 5632 5634 5635 5636 5637 5638 5639 5640 5641 5642 5642 5643 5644 5644 5645 5646 5646 5646 5645 5644 5643 5642 5641 5639 5638 5636 5635
5610 5611 5612 5612 5613 5614 5615 5616 5617 5618 5619 5620 5622 5623 5624 5625 5626 5627 5628 5628 5629 5629 5630 5631 5631 5632 5631 5631 5630 5629 5628 5627 5626 5625 5623 5621 5620 5618
5600 5600 5601 5601 5602 5603 5604 5605 5605 5607 5608 5609 5611 5612 5612 5613 5613 5614 5615 5616 5617 5618 5617 5617 5617 5617 5616 5615 5614 5613 5612 5611 5609 5608 5606 5605 5603 5601
5589 5589 5590 5591 5591 5592 5593 5594 5594 5595 5597 5598 5599 5600 5601 5602 5602 5602 5602 5602 5604 5603 5603 5604 5603 5602 5601 5600 5599 5598 5597 5595 5594 5592 5590 5588 5586 5584
5578 5579 5580 5580 5581 5582 5582 5583 5584 5585 5585 5586 5588 5588 5589 5589 5589 5589 5589 5590 5590 5590 5589 5590 5589 5588 5587 5586 5584 5583 5582 5580 5578 5576 5574 5572 5570 5568
5568 5569 5569 5570 5570 5571 5572 5573 5574 5574 5574 5575 5576 5576 5576 5576 5576 5577 5577 5577 5578 5577 5576 5575 5574 5574 5574 5573 5571 5569 5567 5565 5563 5561 5559 5556 5554 5553
5558 5558 5559 5559 5560 5560 5561 5562 5563 5563 5563 5564 5564 5565 5565 5565 5564 5564 5564 5564 5564 5564 5563 5562 5561 5560 5561 5560 5557 5555 5553 5551 5549 5546 5544 5542 5540 5538
5547 5548 5548 5548 5549 5550 5550 5551 5552 5552 5552 5553 5553 5553 5553 5553 5553 5552 5552 5551 5551 5551 5550 5549 5548 5547 5546 5546 5545 5542 5540 5537 5535 5532 5530 5527 5525 5523
5537 5537 5537 5538 5538 5539 5540 5540 5541 5541 5541 5542 5542 5542 5542 5542 5541 5540 5539 5539 5538 5538 5537 5536 5536 5535 5533 5532 5531 5529 5526 5524 5521 5519 5516 5513 5511 5509
5526 5527 5527 5527 5528 5529 5529 5530 5530 5530 5531 5531 5531 5531 5530 5530 5529 5528 5528 5527 5526 5526 5525 5524 5523 5522 5520 5519 5517 5515 5513 5511 5508 5506 5503 5500 5498 5495
5516 5517 5517 5517 5518 5518 5519 5519 5519 5520 5520 5520 5520 5520 5519 5518 5517 5517 5516 5516 5515 5515 5513 5512 5510 5509 5508 5506 5505 5503 5500 5498 5496 5493 5490 5488 5485 5483
5507 5507 5507 5508 5508 5508 5508 5508 5508 5508 5508 5508 5508 5508 5507 5507 5506 5506 5505 5505 5504 5504 5502 5500 5499 5497 5496 5494 5492 5490 5488 5486 5483 5481 5478 5476 5473 5471
5498 5498 5498 5498 5498 5498 5498 5498 5498 5498 5497 5497 5497 5496 5496 5496 5495 5495 5494 5494 5493 5492 5491 5489 5487 5486 5485 5483 5480 5478 5476 5474 5471 5469 5467 5465 5462 5459
5489 5489 5489 5489 5488 5488 5488 5488 5488 5487 5487 5486 5486 5485 5485 5485 5484 5484 5483 5483 5482 5481 5479 5478 5476 5475 5473 5472 5469 5466 5465 5463 5461 5458 5456 5454 5452 5450
5479 5479 5480 5479 5479 5479 5478 5478 5477 5477 5476 5475 5475 5475 5474 5474 5474 5473 5472 5472 5471 5470 5469 5467 5465 5464 5462 5461 5459 5456 5454 5452 5450 5448 5446 5444 5442 5440
5470 5470 5470 5470 5470 5469 5468 5468 5467 5466 5466 5465 5465 5464 5464 5463 5463 5463 5462 5461 5461 5460 5459 5457 5455 5453 5451 5450 5448 5446 5444 5442 5440 5438 5436 5434 5433 5430
5461 5461 5461 5461 5460 5460 5459 5458 5457 5456 5456 5455 5455 5454 5453 5453 5453 5452 5452 5451 5450 5449 5448 5447 5445 5443 5441 5440 5438 5436 5434 5432 5430 5428 5426 5424 5423 5421
5452 5452 5452 5451 5451 5450 5449 5449 5448 5447 5446 5445 5445 5444 5443 5443 5442 5442 5441 5441 5440 5439 5438 5436 5435 5433 5431 5429 5428 5426 5424 5423 5421 5419 5416 5413 5412 5410